This is the latest recevied weather packets stored in our database for station/object WZ9ZZZ-1. If no packets are shown the sender has not sent any weather packets the latest 10 day(s).
| Time | Temp. | Humidity | Pressure | Rain* | Wind** | Luminosity | Snow |
|---|---|---|---|---|---|---|---|
| 1777252677 | 25.56° C | 89% | 1012.3 hPa | 0 mm | - | 0 W/m² | - |
| 1777252374 | 25.56° C | 88% | 1012.2 hPa | 0 mm | - | 0 W/m² | - |
| 1777252072 | 25.56° C | 88% | 1012.1 hPa | 0 mm | - | 0 W/m² | - |
| 1777251768 | 25.56° C | 87% | 1012.2 hPa | 0 mm | - | 0 W/m² | - |
| 1777251465 | 26.11° C | 87% | 1012.4 hPa | 0 mm | - | 0 W/m² | - |
| 1777251161 | 26.11° C | 87% | 1012.5 hPa | 0 mm | - | 1 W/m² | - |
| 1777250858 | 25.56° C | 87% | 1012.4 hPa | 0 mm | - | 5 W/m² | - |
| 1777250555 | 25.56° C | 88% | 1012.3 hPa | 0 mm | - | 7 W/m² | - |
| 1777250254 | 25.56° C | 89% | 1012.6 hPa | 0 mm | - | 8 W/m² | - |
| 1777249952 | 26.11° C | 89% | 1012.2 hPa | 0 mm | - | 9 W/m² | - |
| 1777249648 | 26.11° C | 90% | 1012.3 hPa | 0 mm | - | 12 W/m² | - |
| 1777249344 | 26.11° C | 89% | 1012.4 hPa | 0 mm | - | 15 W/m² | - |
| 1777249041 | 26.11° C | 89% | 1012.2 hPa | 0 mm | - | 18 W/m² | - |
| 1777248737 | 26.11° C | 89% | 1012.2 hPa | 0 mm | - | 21 W/m² | - |
| 1777248435 | 26.11° C | 89% | 1011.9 hPa | 0 mm | - | 29 W/m² | - |
| 1777248131 | 26.11° C | 88% | 1012.2 hPa | 0 mm | - | 35 W/m² | - |
| 1777247829 | 26.11° C | 88% | 1012.1 hPa | 0 mm | - | 43 W/m² | - |
| 1777247526 | 26.11° C | 88% | 1012.1 hPa | 0 mm | - | 58 W/m² | - |
| 1777247225 | 26.67° C | 88% | 1012.4 hPa | 0 mm | - | 72 W/m² | - |
| 1777246922 | 26.67° C | 88% | 1012.4 hPa | 0 mm | - | 72 W/m² | - |
| 1777246617 | 26.67° C | 88% | 1012.2 hPa | 0 mm | - | 69 W/m² | - |
| 1777246314 | 26.67° C | 88% | 1012.3 hPa | 0 mm | - | 73 W/m² | - |
| 1777246012 | 26.67° C | 88% | 1012.3 hPa | 0 mm | - | 70 W/m² | - |
| 1777245710 | 26.67° C | 87% | 1012.4 hPa | 0 mm | - | 66 W/m² | - |
| 1777245406 | 26.67° C | 86% | 1012.1 hPa | 0 mm | - | 59 W/m² | - |
* Rain latest hour (hover to see other rain measurements)
** Current wind speed in m/s (hover to see current wind gust speed)